[TLELIST] Archives

 

[TLELIST] Current TLEs

April 10th 2024 PST

HST 1 20580U 90037B 24100.64535772 .00005417 00000-0 25990-3 0 9995 2 20580 28.4685 83.9975 0002400 9.1066 350.9569 15.16646611666618 ISS (ZARYA) 1 25544U 98067A 24101.03904484 .00012558 00000-0 22725-3 0 9992 2 25544 51.6391 293.2963 0004827 53.6203 54.5347 15.50046419447975 CXO 1 25867U 99040B 24101.75442889 .00000852 00000-0 00000-0 0 9990 2 25867 39.7258 160.4924 8952487 291.5303 0.1634 0.37813076 14314 ...Continue Reading

[TLELIST] Current TLEs

April 10th 2024 PST

HST 1 20580U 90037B 24100.64535772 .00005417 00000-0 25990-3 0 9995 2 20580 28.4685 83.9975 0002400 9.1066 350.9569 15.16646611666618 ISS (ZARYA) 1 25544U 98067A 24101.03904484 .00012558 00000-0 22725-3 0 9992 2 25544 51.6391 293.2963 0004827 53.6203 54.5347 15.50046419447975 CXO 1 25867U 99040B 24101.75442889 .00000852 00000-0 00000-0 0 9990 2 25867 39.7258 160.4924 8952487 291.5303 0.1634 0.37813076 14314 ...Continue Reading

[TLELIST] Current TLEs

April 9th 2024 PST

HST 1 20580U 90037B 24100.25053482 .00004781 00000-0 22828-3 0 9995 2 20580 28.4684 86.6384 0002385 4.6779 355.3835 15.16641384666813 ISS (ZARYA) 1 25544U 98067A 24100.07853737 .00013558 00000-0 24486-3 0 9996 2 25544 51.6387 298.0555 0004839 50.5238 94.3443 15.50024904447825 CXO 1 25867U 99040B 24101.75442889 .00000852 00000-0 00000-0 0 9990 2 25867 39.7258 160.4924 8952487 291.5303 0.1634 0.37813076 14314 ...Continue Reading

[TLELIST] Current TLEs

April 8th 2024 PST

HST 1 20580U 90037B 24098.67123243 .00004493 00000-0 21407-3 0 9992 2 20580 28.4681 97.2027 0002331 347.0325 13.0207 15.16626558666316 ISS (ZARYA) 1 25544U 98067A 24099.42084265 .00012682 00000-0 22975-3 0 9992 2 25544 51.6405 301.3116 0004747 49.1798 23.2907 15.50005864447729 CXO 1 25867U 99040B 24101.75328704 .00000852 00000-0 00000-0 0 9999 2 25867 39.7258 160.4923 8952489 291.5305 0.0080 0.37813252 14306 ...Continue Reading

[TLELIST] Current TLEs

April 7th 2024 PST

HST 1 20580U 90037B 24097.68416068 .00004469 00000-0 21290-3 0 9995 2 20580 28.4681 103.8051 0002272 335.6781 24.3703 15.16617958666163 ISS (ZARYA) 1 25544U 98067A 24098.38678613 .00011997 00000-0 21801-3 0 9997 2 25544 51.6406 306.4359 0004819 45.3419 13.3007 15.49976152447561 CXO 1 25867U 99040B 24099.11342090 .00000981 00000-0 00000-0 0 9992 2 25867 39.6477 160.8755 8951214 291.2355 0.6641 0.37810152 14307 ...Continue Reading

[TLELIST] Current TLEs

April 6th 2024 PST

HST 1 20580U 90037B 24096.69708346 .00004456 00000-0 21231-3 0 9999 2 20580 28.4681 110.4073 0002235 323.8674 36.1767 15.16609433666014 ISS (ZARYA) 1 25544U 98067A 24097.23546477 .00021685 00000-0 38739-3 0 9995 2 25544 51.6407 312.1434 0004729 39.3561 70.8282 15.49956353447385 CXO 1 25867U 99040B 24099.11342090 .00000981 00000-0 00000-0 0 9992 2 25867 39.6477 160.8755 8951214 291.2355 0.6641 0.37810152 14307 ...Continue Reading

[TLELIST] Current TLEs

April 5th 2024 PST

HST 1 20580U 90037B 24096.23644580 .00004423 00000-0 21071-3 0 9994 2 20580 28.4681 113.4885 0002209 318.3151 41.7272 15.16605308666209 ISS (ZARYA) 1 25544U 98067A 24096.37519676 .00011085 00000-0 20243-3 0 9994 2 25544 51.6408 316.4013 0004731 37.9942 308.9183 15.49924709447246 CXO 1 25867U 99040B 24096.46753918 .00001153 00000-0 00000+0 0 9993 2 25867 39.5906 161.1729 8949988 291.0278 0.4027 0.37809786 25449 ...Continue Reading

[TLELIST] Current TLEs

April 4th 2024 PST

HST 1 20580U 90037B 24095.18355483 .00004373 00000-0 20825-3 0 9998 2 20580 28.4680 120.5305 0002185 305.6790 54.3599 15.16595850666049 ISS (ZARYA) 1 25544U 98067A 24095.48787916 .00014925 00000-0 26976-3 0 9994 2 25544 51.6410 320.7956 0004520 35.2024 37.4988 15.49914185447111 CXO 1 25867U 99040B 24096.46753918 .00001153 00000-0 00000+0 0 9993 2 25867 39.5906 161.1729 8949988 291.0278 0.4027 0.37809786 25449 ...Continue Reading

[TLELIST] Current TLEs

April 4th 2024 PST

HST 1 20580U 90037B 24095.18355483 .00004373 00000-0 20825-3 0 9998 2 20580 28.4680 120.5305 0002185 305.6790 54.3599 15.16595850666049 ISS (ZARYA) 1 25544U 98067A 24095.48787916 .00014925 00000-0 26976-3 0 9994 2 25544 51.6410 320.7956 0004520 35.2024 37.4988 15.49914185447111 CXO 1 25867U 99040B 24096.46753918 .00001153 00000-0 00000+0 0 9993 2 25867 39.5906 161.1729 8949988 291.0278 0.4027 0.37809786 25449 ...Continue Reading

[TLELIST] Current TLEs

April 3rd 2024 PST

HST 1 20580U 90037B 24093.80162594 .00005498 00000-0 26439-3 0 9990 2 20580 28.4679 129.7729 0002166 289.3021 70.7336 15.16584927665573 ISS (ZARYA) 1 25544U 98067A 24094.12084279 .00013440 00000-0 24412-3 0 9990 2 25544 51.6391 327.5718 0004623 30.7792 329.3467 15.49871182446906 CXO 1 25867U 99040B 24096.46753918 .00001153 00000-0 00000+0 0 9993 2 25867 39.5906 161.1729 8949988 291.0278 0.4027 0.37809786 25449 ...Continue Reading
  • This mailing list is a public mailing list - anyone may join or leave, at any time.
  • This mailing list is announce-only.

International Space Station (ISS) / Hubble Space Telescope (HST) / Chandra X-Ray Observatory Orbital Data via EMAIL

Privacy Policy:

Private list